This is the latest recevied weather packets stored in our database for station/object OE3APM-13. If no packets are shown the sender has not sent any weather packets the latest 10 day(s).
| Time | Temp. | Humidity | Pressure | Rain* | Wind** | Luminosity | Snow |
|---|---|---|---|---|---|---|---|
| 1777759881 | 8.89° C | 65% | 1019.4 hPa | 0 mm | - | 0 W/m² | - |
| 1777759581 | 8.89° C | 64% | 1019.4 hPa | 0 mm | - | 0 W/m² | - |
| 1777759287 | 9.44° C | 63% | 1019.4 hPa | 0 mm | - | 0 W/m² | - |
| 1777758979 | 10° C | 62% | 1019.4 hPa | 0 mm | - | 0 W/m² | - |
| 1777758678 | 10° C | 63% | 1019.4 hPa | 0 mm | - | 0 W/m² | - |
| 1777758375 | 10.56° C | 59% | 1019.4 hPa | 0 mm | - | 0 W/m² | - |
| 1777758074 | 11.11° C | 59% | 1019.4 hPa | 0 mm | - | 0 W/m² | - |
| 1777757773 | 11.11° C | 63% | 1019.4 hPa | 0 mm | - | 0 W/m² | - |
| 1777757472 | 11.67° C | 63% | 1019.5 hPa | 0 mm | - | 0 W/m² | - |
| 1777757172 | 12.22° C | 65% | 1019.5 hPa | 0 mm | - | 0 W/m² | - |
| 1777756872 | 12.22° C | 62% | 1019.5 hPa | 0 mm | - | 0 W/m² | - |
| 1777756573 | 12.78° C | 62% | 1019.5 hPa | 0 mm | - | 0 W/m² | - |
| 1777756275 | 12.78° C | 58% | 1019.4 hPa | 0 mm | - | 0 W/m² | - |
| 1777755967 | 12.78° C | 62% | 1019.5 hPa | 0 mm | - | 0 W/m² | - |
| 1777755664 | 12.78° C | 55% | 1019.5 hPa | 0 mm | - | 0 W/m² | - |
| 1777755364 | 12.78° C | 53% | 1019.5 hPa | 0 mm | - | 0 W/m² | - |
| 1777755064 | 13.33° C | 52% | 1019.5 hPa | 0 mm | - | 0 W/m² | - |
| 1777754764 | 12.78° C | 49% | 1019.6 hPa | 0 mm | - | 0 W/m² | - |
| 1777754463 | 12.78° C | 49% | 1019.6 hPa | 0 mm | - | 0 W/m² | - |
| 1777754163 | 12.78° C | 50% | 1019.6 hPa | 0 mm | - | 0 W/m² | - |
| 1777753864 | 12.78° C | 50% | 1019.6 hPa | 0 mm | - | 0 W/m² | - |
| 1777753563 | 12.78° C | 51% | 1019.7 hPa | 0 mm | - | 0 W/m² | - |
| 1777753263 | 12.78° C | 51% | 1019.8 hPa | 0 mm | - | 0 W/m² | - |
| 1777752964 | 12.22° C | 52% | 1019.9 hPa | 0 mm | - | 0 W/m² | - |
| 1777752662 | 12.22° C | 54% | 1019.8 hPa | 0 mm | - | 0 W/m² | - |
* Rain latest hour (hover to see other rain measurements)
** Current wind speed in m/s (hover to see current wind gust speed)